Home   Weather   Ghent   Past weeks

Flag for Belgium Past Weather in Ghent, Belgium — Yesterday and Last 2 Weeks

Now
58 °F

Cool.


Feels Like: 58 °F
Forecast: 57 / 67 °F
Wind: 2 mph from Southwest

Location: Munte

Current Time: Jul 24, 2017 at 3:07:43 am

Latest Report: Jul 24, 2017 at 2:00 am


Visibility: 13 mi

Pressure: 29.86 "Hg

Humidity: 92%

Dew Point: 56 °F

Location of GhentLocation

Past Weather in Ghent — Graph

°F

Ghent Temperature Yesterday

Maximum temperature yesterday: 71 °F (at 5:00 pm)
Minimum temperature yesterday: 54 °F (at 4:00 am)
Average temperature yesterday: 62 °F

High & Low Weather Summary for the Past Weeks

 TemperatureHumidityPressure
High87 °F (Jul 19, 4:00 pm)100% (Jul 9, 4:00 am)30.24 "Hg (Jul 9, 4:00 am)
Low47 °F (Jul 13, 5:00 am)33% (Jul 21, 4:00 pm)29.70 "Hg (Jul 12, 9:00 am)
Average66 °F70%29.98 "Hg
* Reported Jul 9 2:00 am — Jul 24 2:00 am, Ghent. Weather by CustomWeather, © 2017

Note: Actual official high and low records may vary slightly from our data, if they occured in-between our weather recording intervals... More about our weather records

Advertising

Ghent Weather History for the Previous 24 Hours

Scroll right to see more
 ConditionsComfort  
Time TempWeatherWind HumidityBarometerVisibility
2:00 am
Mon, Jul 24
58 °FCool.2 mph92%29.86 "Hg12 mi
1:00 am59 °FLight rain. Overcast.3 mph89%29.88 "Hg12 mi
12:00 am58 °FLight rain. Overcast.N/A93%29.89 "Hg10 mi
11:00 pm
Sun, Jul 23
61 °FLight rain. Overcast.2 mph72%29.90 "Hg12 mi
10:00 pm63 °FMild.3 mph61%29.90 "Hg12 mi
9:00 pm65 °FMild.5 mph55%29.90 "Hg12 mi
8:00 pm67 °FMild.3 mph50%29.90 "Hg12 mi
7:00 pm68 °FMild.6 mph47%29.90 "Hg12 mi
6:00 pm68 °FMild.3 mph50%29.90 "Hg12 mi
5:00 pm71 °FMild.5 mph45%29.90 "Hg12 mi
4:00 pm71 °FMild.6 mph43%29.91 "Hg12 mi
3:00 pm68 °FMild.3 mph52%29.92 "Hg12 mi
2:00 pm66 °FMild.5 mph66%29.92 "Hg12 mi
1:00 pm64 °FMild.3 mph78%29.91 "Hg12 mi
12:00 pm63 °FMild.7 mph74%29.91 "Hg12 mi
11:00 am62 °FCool.8 mph76%29.90 "Hg12 mi
10:00 am59 °FCool.8 mph86%29.90 "Hg12 mi
8:00 am57 °FLight rain. Cloudy.6 mph98%29.89 "Hg12 mi
7:00 am56 °FCool.6 mph100%29.90 "Hg12 mi
6:00 am55 °FCool.3 mph99%29.89 "Hg12 mi
5:00 am54 °FCool.2 mph99%29.89 "Hg12 mi
4:00 am54 °FCool.2 mph98%29.89 "Hg12 mi
3:00 am55 °FCool.2 mph98%29.89 "Hg12 mi
Weather by CustomWeather, © 2017

See weather overviewHow to use our weather pages